Date String (YYYY-MM-DD hh:mm:ss) UTC,Instrument flags,Ambient pressure (hPa),Sample flow (lpm),Bypass flow (lpm),Sample temperature (°C),Ambient temperature (°C),ASC tube jacket temperature (°C),LED temperature (°C),Box temperature (°C),Sample RH (%),Span deviation,Mass concentration (μg/m³),Mass concentration (μg/m³),Mass concentration (μg/m³)
DateTimeUTC,F1_M11,P_M11,Q1_M11,Q2_M11,T1_M11,T2_M11,T3_M11,T4_M11,T5_M11,U1_M11,ZSPAN_M11,X0_M11,X2_M11,X1_M11
2021-09-16 23:00:00,,0821.2,5.00,0.00,29.0,25.7,00.0,38.0,30.5,12.4,0001.7,0013.74,0006.52,0005.87
2021-09-16 23:01:00,,0821.2,5.00,0.00,29.0,26.0,00.0,38.0,30.5,12.5,0002.1,0013.51,0006.51,0005.87
2021-09-16 23:02:00,,0821.2,5.00,0.00,28.9,26.4,00.0,38.0,30.5,12.2,0002.3,0013.33,0006.54,0005.87
2021-09-16 23:03:00,,0821.2,5.00,0.00,28.9,26.9,00.0,38.0,30.7,12.8,0002.4,0013.32,0006.53,0005.87
2021-09-16 23:04:00,,0821.3,5.01,0.00,29.0,27.3,00.0,38.0,30.8,13.1,0002.2,0013.94,0006.53,0005.86
2021-09-16 23:05:00,,0821.3,4.99,0.00,29.0,27.7,00.0,38.0,30.9,12.0,0002.5,0013.21,0006.54,0005.87
2021-09-16 23:06:00,,0821.3,5.01,0.00,29.1,28.0,00.0,38.0,31.0,11.6,0002.6,0013.11,0006.53,0005.88
2021-09-16 23:07:00,,0821.3,5.00,0.00,29.1,28.0,00.0,38.0,31.0,12.3,0002.7,0013.62,0006.49,0005.86
2021-09-16 23:08:00,,0821.3,5.00,0.00,29.1,26.6,00.0,38.0,30.6,13.2,0002.9,0015.10,0006.46,0005.84
2021-09-16 23:09:00,,0821.3,5.00,0.00,28.9,25.5,00.0,38.0,30.2,13.1,0002.8,0015.35,0006.40,0005.81
2021-09-16 23:10:00,,0821.3,5.00,0.00,28.9,25.8,00.0,38.0,30.3,12.8,0002.5,0014.89,0006.38,0005.78
2021-09-16 23:11:00,,0821.4,5.01,0.00,28.8,26.3,00.0,38.0,30.4,12.3,0002.1,0014.74,0006.36,0005.77
2021-09-16 23:12:00,,0821.3,5.00,0.00,28.8,26.7,00.0,38.0,30.6,12.0,0002.1,0016.03,0006.35,0005.76
2021-09-16 23:13:00,,0821.3,4.99,0.00,28.9,27.2,00.0,38.0,30.7,11.9,0002.1,0017.01,0006.33,0005.76
2021-09-16 23:14:00,,0821.4,5.01,0.00,28.9,27.5,00.0,38.0,30.8,11.4,0001.9,0016.88,0006.33,0005.75
2021-09-16 23:15:00,,0821.3,5.00,0.00,29.0,27.9,00.0,38.0,30.9,12.2,0001.8,0016.42,0006.36,0005.73
2021-09-16 23:16:00,,0821.4,4.99,0.00,29.1,28.1,00.0,38.0,31.0,12.2,0001.4,0016.07,0006.34,0005.71
2021-09-16 23:17:00,,0821.4,4.99,0.00,29.2,28.4,00.0,38.0,31.1,11.7,0001.2,0016.10,0006.33,0005.70
2021-09-16 23:18:00,,0821.4,5.00,0.00,29.2,28.0,00.0,38.1,31.0,11.8,0001.0,0015.57,0006.37,0005.70
2021-09-16 23:19:00,,0821.4,5.01,0.00,29.1,26.2,00.0,38.1,30.5,12.2,0001.1,0014.32,0006.37,0005.70
2021-09-16 23:20:00,,0821.4,5.00,0.00,29.0,25.7,00.0,38.0,30.4,12.7,0000.7,0013.90,0006.39,0005.71
2021-09-16 23:21:00,,0821.4,4.98,0.00,28.9,26.1,00.0,38.0,30.5,11.8,0001.0,0013.75,0006.40,0005.72
2021-09-16 23:22:00,,0821.4,5.00,0.00,28.9,26.6,00.0,38.0,30.6,12.8,0001.0,0013.83,0006.40,0005.72
2021-09-16 23:23:00,,0821.4,5.00,0.00,28.9,27.0,00.0,38.0,30.7,12.5,0000.8,0012.82,0006.43,0005.70
2021-09-16 23:24:00,,0821.4,5.02,0.00,29.0,27.5,00.0,38.0,30.8,12.3,0000.6,0011.70,0006.41,0005.69
2021-09-16 23:25:00,,0821.3,5.00,0.00,29.1,27.8,00.0,38.0,30.9,12.2,0000.8,0012.08,0006.39,0005.70
2021-09-16 23:26:00,,0821.3,5.01,0.00,29.1,28.1,00.0,38.0,31.1,11.7,0000.7,0012.55,0006.36,0005.71
2021-09-16 23:27:00,,0821.3,5.00,0.00,29.2,28.3,00.0,38.1,31.1,11.8,0001.1,0013.23,0006.35,0005.72
2021-09-16 23:28:00,,0821.3,5.01,0.00,29.2,27.2,00.0,38.1,30.9,12.1,0001.2,0013.26,0006.35,0005.73
2021-09-16 23:29:00,,0821.3,5.01,0.00,29.0,25.7,00.0,38.1,30.4,12.5,0001.6,0013.23,0006.30,0005.71
2021-09-16 23:30:00,,0821.3,5.00,0.00,28.9,25.8,00.0,38.0,30.4,12.6,0001.6,0013.73,0006.33,0005.71
2021-09-16 23:31:00,,0821.4,5.00,0.00,28.9,26.3,00.0,38.0,30.5,12.6,0001.7,0014.01,0006.34,0005.72
2021-09-16 23:32:00,,0821.4,5.00,0.00,28.9,26.7,00.0,38.0,30.6,12.5,0001.6,0014.24,0006.32,0005.71
2021-09-16 23:33:00,,0821.4,5.00,0.00,28.9,27.1,00.0,38.0,30.7,13.0,0001.8,0014.06,0006.32,0005.70
2021-09-16 23:34:00,,0821.4,5.00,0.00,29.0,27.5,00.0,38.0,30.8,13.2,0002.1,0014.10,0006.29,0005.70
2021-09-16 23:35:00,,0821.4,5.01,0.00,29.1,27.9,00.0,38.0,31.0,12.7,0002.2,0014.98,0006.30,0005.70
2021-09-16 23:36:00,,0821.4,4.98,0.00,29.1,28.2,00.0,38.0,31.1,12.6,0002.0,0014.20,0006.30,0005.69
2021-09-16 23:37:00,,0821.4,5.00,0.00,29.2,28.4,00.0,38.1,31.2,12.3,0002.1,0013.88,0006.25,0005.69
2021-09-16 23:38:00,,0821.4,5.01,0.00,29.2,27.5,00.0,38.1,31.0,11.9,0001.6,0013.70,0006.27,0005.69
2021-09-16 23:39:00,,0821.4,5.01,0.00,29.1,25.9,00.0,38.1,30.4,12.4,0001.5,0013.83,0006.27,0005.68
2021-09-16 23:40:00,,0821.4,5.01,0.00,28.9,25.8,00.0,38.1,30.4,13.0,0001.5,0014.84,0006.32,0005.69
2021-09-16 23:41:00,,0821.4,5.00,0.00,28.9,26.2,00.0,38.1,30.5,13.5,0001.7,0016.45,0006.33,0005.70
2021-09-16 23:42:00,,0821.4,5.00,0.00,28.9,26.6,00.0,38.0,30.6,13.3,0001.6,0016.81,0006.37,0005.71
2021-09-16 23:43:00,,0821.5,4.99,0.00,28.9,27.1,00.0,38.0,30.7,12.0,0001.7,0017.03,0006.36,0005.72
2021-09-16 23:44:00,,0821.5,5.00,0.00,29.0,27.4,00.0,38.0,30.8,11.6,0001.7,0017.81,0006.36,0005.73
2021-09-16 23:45:00,,0821.6,5.01,0.00,29.1,27.8,00.0,38.0,31.0,11.4,0001.2,0018.00,0006.37,0005.74
2021-09-16 23:46:00,,0821.6,4.98,0.00,29.1,28.1,00.0,38.1,31.1,11.9,0001.5,0017.88,0006.40,0005.75
2021-09-16 23:47:00,,0821.7,5.00,0.00,29.2,28.2,00.0,38.1,31.1,12.2,0001.4,0017.81,0006.39,0005.75
2021-09-16 23:48:00,,0821.6,5.00,0.00,29.2,26.7,00.0,38.1,30.7,12.5,0001.0,0017.49,0006.39,0005.76
2021-09-16 23:49:00,,0821.5,5.00,0.00,29.0,25.6,00.0,38.1,30.4,13.0,0001.0,0017.64,0006.39,0005.76
2021-09-16 23:50:00,,0821.6,5.00,0.00,28.9,25.9,00.0,38.1,30.5,12.9,0000.9,0017.82,0006.43,0005.77
2021-09-16 23:51:00,,0821.7,5.00,0.00,28.9,26.4,00.0,38.0,30.6,12.7,0000.6,0017.38,0006.42,0005.77
2021-09-16 23:52:00,,0821.6,5.01,0.00,28.9,26.8,00.0,38.0,30.7,11.6,0000.2,0015.48,0006.39,0005.77
2021-09-16 23:53:00,,0821.5,5.00,0.00,29.0,27.2,00.0,38.0,30.8,10.9,0000.3,0015.79,0006.37,0005.75
2021-09-16 23:54:00,,0821.6,5.01,0.00,29.0,27.6,00.0,38.0,30.9,10.5,0000.3,0015.46,0006.47,0005.76
2021-09-16 23:55:00,,0821.6,4.99,0.00,29.1,28.0,00.0,38.1,31.0,10.6,0000.4,0014.93,0006.50,0005.77
2021-09-16 23:56:00,,0821.7,5.00,0.00,29.1,27.4,00.0,38.1,30.9,10.6,0000.4,0014.63,0006.48,0005.77
2021-09-16 23:57:00,,0821.7,5.01,0.00,29.0,25.7,00.0,38.0,30.4,10.4,0000.1,0013.95,0006.44,0005.76
2021-09-16 23:58:00,,0821.7,5.00,0.00,28.8,25.5,00.0,38.0,30.3,10.6,-000.1,0014.06,0006.45,0005.76
2021-09-16 23:59:00,,0821.6,5.00,0.00,28.8,26.0,00.0,38.0,30.4,10.7,0000.5,0014.10,0006.43,0005.74
